Location: Zagreb
(45.8000°N, 16.0000°E)
Time: 13:40:32
(UTC+02:00)

Transit 2A - Pass Details

Date: 17 August 2022
Orbit: 601 x 956 km, 66.7° (Epoch: 25 September)

Event Time Altitude Azimuth Distance (km) Brightness Sun altitude
Rises 10:36:29 0° 192° (SSW) 3,153 9.4 45.7°
Reaches altitude 10° 10:39:02 10° 185° (S) 2,177 8.8 46.0°
Maximum altitude 10:43:37 41° 116° (ESE) 965 9.0 46.7°
Drops below altitude 10° 10:47:53 10° 46° (NE) 2,024 8.4 47.2°
Sets 10:50:10 0° 40° (NE) 2,904 9.0 47.6°
